Walbridge, OH

8:07 PM EST on February 10, 2016 (GMT -0500)
Metcalf

Weather History for KTDZ - February, 2013

Change the Weather History Date:

Sunday, February 24, 2013

  Actual Average (KTOL) Record (KTOL)
Temperature  
Mean Temperature 30 °F 30 °F  
Max Temperature 37 °F 39 °F 61 °F (2000)
Min Temperature 23 °F 23 °F -4 °F (1914)
Degree Days  
Heating Degree Days 35 34  
Month to date heating degree days 893  
Since 1 July heating degree days 4442  
Cooling Degree Days 0 0  
Month to date cooling degree days 0  
Year to date cooling degree days 0  
Moisture  
Dew Point 22 °F    
Average Humidity 70    
Maximum Humidity 81    
Minimum Humidity 59    
Precipitation  
Precipitation 0.00 in 0.09 in - ()
Month to date precipitation 1.75  
Year to date precipitation 3.80  
Snow  
Snow 0.00 in 0.30 in - ()
Month to date snowfall 8.3  
Since 1 July snowfall 29.4  
Snow Depth -    
Sea Level Pressure  
Sea Level Pressure 30.06 in    
Wind  
Wind Speed 11 mph (West)    
Max Wind Speed 17 mph    
Max Gust Speed 22 mph    
Visibility 10 miles    
Events      
T = Trace of Precipitation, MM = Missing Value Source: NWS Daily Summary

Daily Weather History Graph

Daily Weather History Graph

Search for Another Location

Airport or City:

Trip Planner

Search our weather history database for the weather conditions in past years. The results will help you decide how hot, cold, wet, or windy it might be!

Date:

Astronomy

Feb. 24, 2013 Rise Set
Actual Time 7:15 AM EST 6:18 PM EST
Civil Twilight 6:47 AM EST 6:46 PM EST
Nautical Twilight 6:15 AM EST 7:19 PM EST
Astronomical Twilight 5:43 AM EST 7:51 PM EST
Moon 5:28 PM EST (2/24) 6:12 AM EST (2/24)
Length of Visible Light 11h 58m
Length of Day
11h 02m
Waxing Gibbous, 99% of the Moon is Illuminated
Feb 24
Waxing Gibbous
Feb 25
Full
Mar 4
Last Quarter
Mar 11
New
Mar 19
First Quarter

Hourly Weather History & Observations

Time (EST) Temp. Windchill Dew Point Humidity Pressure Visibility Wind Dir Wind Speed Gust Speed Precip Events Conditions
12:53 AM 28.0 °F 17.0 °F 19.0 °F 69% 29.95 in 10.0 mi West 13.8 mph - N/A   Overcast
1:20 AM 28.4 °F 18.5 °F 17.6 °F 64% 29.93 in 10.0 mi West 11.5 mph - N/A   Overcast
1:53 AM 26.1 °F 19.4 °F 17.1 °F 69% 29.96 in 10.0 mi West 5.8 mph - N/A   Partly Cloudy
2:53 AM 26.1 °F 17.6 °F 18.0 °F 71% 29.98 in 10.0 mi West 8.1 mph - N/A   Clear
3:53 AM 26.1 °F 16.8 °F 18.0 °F 71% 29.98 in 10.0 mi WSW 9.2 mph - N/A   Overcast
4:53 AM 25.0 °F 18.1 °F 18.0 °F 75% 29.98 in 9.0 mi WSW 5.8 mph - N/A   Partly Cloudy
5:53 AM 23.0 °F 15.8 °F 17.1 °F 78% 30.00 in 8.0 mi SW 5.8 mph - N/A   Clear
6:53 AM 24.1 °F 17.0 °F 19.0 °F 81% 30.01 in 8.0 mi SW 5.8 mph - N/A   Overcast
7:53 AM 26.1 °F 15.6 °F 19.0 °F 75% 30.03 in 8.0 mi WSW 11.5 mph - N/A   Overcast
8:53 AM 28.0 °F 18.6 °F 19.9 °F 72% 30.04 in 9.0 mi WSW 10.4 mph - N/A   Overcast
9:53 AM 30.0 °F 19.5 °F 21.0 °F 69% 30.06 in 10.0 mi WSW 13.8 mph - N/A   Clear
10:53 AM 32.0 °F 22.5 °F 21.9 °F 66% 30.06 in 10.0 mi West 12.7 mph - N/A   Clear
11:53 AM 33.1 °F 22.2 °F 23.0 °F 66% 30.07 in 10.0 mi West 17.3 mph - N/A   Overcast
12:34 PM 33.8 °F 23.9 °F 23.0 °F 65% 30.06 in 10.0 mi West 15.0 mph - N/A   Overcast
12:45 PM 33.8 °F 24.3 °F 24.8 °F 70% 30.06 in 10.0 mi West 13.8 mph - N/A   Overcast
12:53 PM 34.0 °F 23.8 °F 24.1 °F 67% 30.08 in 10.0 mi West 16.1 mph - N/A   Overcast
1:18 PM 35.6 °F 25.9 °F 24.8 °F 65% 30.06 in 10.0 mi West 16.1 mph - N/A   Mostly Cloudy
1:39 PM 35.6 °F 26.2 °F 24.8 °F 65% 30.05 in 10.0 mi West 15.0 mph - N/A   Partly Cloudy
1:53 PM 37.0 °F 27.7 °F 24.1 °F 59% 30.07 in 10.0 mi West 16.1 mph 21.9 mph N/A   Partly Cloudy
2:53 PM 35.1 °F 25.2 °F 24.1 °F 64% 30.09 in 10.0 mi West 16.1 mph 20.7 mph N/A   Overcast
3:53 PM 36.0 °F 26.7 °F 24.1 °F 62% 30.10 in 10.0 mi NW 15.0 mph 19.6 mph N/A   Mostly Cloudy
4:53 PM 36.0 °F 28.5 °F 23.0 °F 59% 30.11 in 10.0 mi WNW 10.4 mph - N/A   Mostly Cloudy
5:53 PM 34.0 °F 26.0 °F 24.1 °F 67% 30.13 in 10.0 mi WNW 10.4 mph - N/A   Overcast
6:53 PM 34.0 °F 26.6 °F 25.0 °F 70% 30.15 in 10.0 mi West 9.2 mph - N/A   Overcast
7:53 PM 32.0 °F 26.4 °F 25.0 °F 75% 30.17 in 9.0 mi West 5.8 mph - N/A   Overcast
8:53 PM 32.0 °F 26.4 °F 25.0 °F 75% 30.17 in 9.0 mi West 5.8 mph - N/A   Overcast
9:53 PM 32.0 °F 26.4 °F 25.0 °F 75% 30.17 in 9.0 mi West 5.8 mph - N/A   Overcast
10:53 PM 28.9 °F 21.9 °F 23.0 °F 78% 30.18 in 9.0 mi West 6.9 mph - N/A   Clear
11:53 PM 27.0 °F 21.6 °F 21.9 °F 81% 30.18 in 8.0 mi West 4.6 mph - N/A   Clear